Terminal Aerodrome Forecast
Issued by NWS

Home | Current Version | Previous Version | Text Only | Print | Product List | Glossary On
Versions: 1 2 3 4 5 6 7 8 9 10 11 12 13 14 15 16 17 18 19 20 21 22 23 24 25 26 27 28 29 30 31 32 33 34 35 36 37 38 39 40 41 42 43 44 45 46 47 48
000
FTUS43 KDMX 271739
TAFFOD
TAF
KFOD 271739Z 2718/2818 01007KT P6SM OVC015
     FM280300 06005KT 3SM BR OVC010
     FM281000 02004KT P6SM BKN020
     FM281500 06008KT P6SM BKN040=

USA.gov is the U.S. government's official web portal to all federal, state and local government web resources and services.